JML100 EVRA-EDDL

Flight info

Callsign JML100
Flight time 1h 52m
Altitude 38000
Route VALED DCT ADAXA DCT NINTA DCT DIPEB DCT GOSOT DCT BANUB DCT NEBUN DCT ROBEG DCT DENOL T851 HALME HALME1A
Aircraft B737/M-SDE2E3FGHIRWXY/LB1

Departure

Time 2026-05-07 14:42
Airport Riga International Airport (EVRA)

Arrival

Time 2026-05-07 16:34
Airport Düsseldorf Airport (EDDL)
Time Latitude Longitude Altitude Speed Heading
2026-05-07 14:30 56.92941 23.98364 42 ft 0 kts 95°
2026-05-07 14:37 56.92941 23.98365 42 ft 0 kts 95°
2026-05-07 14:38 56.92927 23.98370 42 ft 6 kts 215°
2026-05-07 14:38 56.92914 23.98234 42 ft 15 kts 271°
2026-05-07 14:38 56.92926 23.97992 42 ft 26 kts 274°
2026-05-07 14:38 56.92941 23.97655 42 ft 18 kts 257°
2026-05-07 14:39 56.92916 23.97605 42 ft 4 kts 196°
2026-05-07 14:39 56.92795 23.97585 42 ft 31 kts 184°
2026-05-07 14:39 56.92557 23.97545 42 ft 34 kts 183°
2026-05-07 14:39 56.92329 23.97498 42 ft 31 kts 185°
2026-05-07 14:40 56.92120 23.97463 42 ft 31 kts 184°
2026-05-07 14:40 56.91879 23.97431 42 ft 35 kts 180°
2026-05-07 14:40 56.91644 23.97398 42 ft 33 kts 186°
2026-05-07 14:40 56.91428 23.97360 42 ft 29 kts 186°
2026-05-07 14:41 56.91293 23.97212 42 ft 21 kts 229°
2026-05-07 14:41 56.91260 23.96978 42 ft 20 kts 307°
2026-05-07 14:41 56.91462 23.96962 42 ft 53 kts
2026-05-07 14:41 56.92016 23.97064 42 ft 105 kts
2026-05-07 14:42 56.92890 23.97210 56 ft 144 kts
2026-05-07 14:42 56.93893 23.97409 536 ft 142 kts
2026-05-07 14:42 56.94860 23.97593 1122 ft 138 kts
2026-05-07 14:42 56.95827 23.97728 1587 ft 142 kts 358°
2026-05-07 14:43 56.96783 23.97013 1865 ft 165 kts 321°
2026-05-07 14:43 56.97452 23.95136 2133 ft 191 kts 293°
2026-05-07 14:43 56.97536 23.92556 2370 ft 219 kts 261°
2026-05-07 14:43 56.96919 23.89882 2872 ft 233 kts 243°
2026-05-07 14:44 56.96044 23.87346 3446 ft 238 kts 239°
2026-05-07 14:44 56.95100 23.84803 3677 ft 244 kts 237°
2026-05-07 14:44 56.94141 23.82262 3766 ft 238 kts 237°
2026-05-07 14:44 56.93169 23.79810 4076 ft 245 kts 234°
2026-05-07 14:45 56.92372 23.77055 4697 ft 252 kts 256°
2026-05-07 14:45 56.92321 23.73867 5607 ft 253 kts 277°
2026-05-07 14:45 56.92670 23.70698 6593 ft 253 kts 279°
2026-05-07 14:45 56.93021 23.67516 7510 ft 256 kts 277°
2026-05-07 14:46 56.92961 23.64313 8472 ft 253 kts 256°
2026-05-07 14:46 56.92296 23.61315 9413 ft 255 kts 242°
2026-05-07 14:46 56.91430 23.58517 10306 ft 257 kts 242°
2026-05-07 14:46 56.90549 23.55570 11116 ft 265 kts 242°
2026-05-07 14:47 56.89673 23.52537 11597 ft 283 kts 242°
2026-05-07 14:47 56.88723 23.49246 11985 ft 303 kts 242°
2026-05-07 14:47 56.87625 23.45822 12451 ft 319 kts 237°
2026-05-07 14:47 56.86350 23.42457 13206 ft 325 kts 234°
2026-05-07 14:48 56.85010 23.39106 14096 ft 328 kts 234°
2026-05-07 14:48 56.83664 23.35710 14959 ft 333 kts 235°
2026-05-07 14:48 56.82300 23.32250 15829 ft 337 kts 235°
2026-05-07 14:48 56.80932 23.28764 16680 ft 341 kts 234°
2026-05-07 14:49 56.79588 23.25155 17494 ft 346 kts 239°
2026-05-07 14:49 56.78597 23.21124 18282 ft 352 kts 250°
2026-05-07 14:49 56.77986 23.16801 19223 ft 352 kts 255°
2026-05-07 14:49 56.77521 23.12394 20001 ft 357 kts 258°
2026-05-07 14:50 56.77143 23.07885 20738 ft 360 kts 258°
2026-05-07 14:50 56.76778 23.03353 21520 ft 362 kts 259°
2026-05-07 14:50 56.76456 22.98792 22245 ft 365 kts 259°
2026-05-07 14:50 56.76106 22.94196 22963 ft 366 kts 258°
2026-05-07 14:51 56.75732 22.89592 23635 ft 368 kts 258°
2026-05-07 14:51 56.75345 22.84965 24194 ft 372 kts 258°
2026-05-07 14:51 56.74949 22.80294 24709 ft 377 kts 258°
2026-05-07 14:51 56.74540 22.75534 25238 ft 380 kts 258°
2026-05-07 14:52 56.74129 22.70766 25761 ft 383 kts 258°
2026-05-07 14:52 56.73712 22.65939 26250 ft 387 kts 258°
2026-05-07 14:52 56.73290 22.61080 26716 ft 391 kts 258°
2026-05-07 14:52 56.72864 22.56165 27146 ft 395 kts 258°
2026-05-07 14:53 56.72433 22.51196 27588 ft 398 kts 258°
2026-05-07 14:53 56.72000 22.46201 28001 ft 401 kts 258°
2026-05-07 14:53 56.71529 22.41179 28401 ft 404 kts 257°
2026-05-07 14:53 56.70992 22.36141 28787 ft 407 kts 256°
2026-05-07 14:54 56.70439 22.31075 29158 ft 410 kts 256°
2026-05-07 14:54 56.69883 22.25975 29518 ft 413 kts 257°
2026-05-07 14:54 56.69322 22.20828 29844 ft 416 kts 256°
2026-05-07 14:54 56.68755 22.15642 30152 ft 419 kts 256°
2026-05-07 14:55 56.68184 22.10422 30481 ft 422 kts 257°
2026-05-07 14:55 56.67619 22.05273 30895 ft 422 kts 257°
2026-05-07 14:55 56.67035 21.99973 31275 ft 423 kts 256°
2026-05-07 14:55 56.66463 21.94798 31636 ft 424 kts 256°
2026-05-07 14:56 56.65878 21.89538 32000 ft 425 kts 257°
2026-05-07 14:56 56.65295 21.84277 32352 ft 425 kts 257°
2026-05-07 14:56 56.64762 21.78984 32739 ft 425 kts 258°
2026-05-07 14:56 56.64226 21.73692 33060 ft 427 kts 257°
2026-05-07 14:57 56.63674 21.68391 33377 ft 428 kts 257°
2026-05-07 14:57 56.63108 21.63080 33703 ft 428 kts 257°
2026-05-07 14:57 56.62534 21.57774 34004 ft 429 kts 257°
2026-05-07 14:57 56.61951 21.52446 34285 ft 431 kts 257°
2026-05-07 14:58 56.61362 21.47109 34591 ft 431 kts 257°
2026-05-07 14:58 56.60769 21.41771 34885 ft 432 kts 257°
2026-05-07 14:58 56.60173 21.36433 35166 ft 433 kts 257°
2026-05-07 14:58 56.59571 21.31075 35466 ft 433 kts 257°
2026-05-07 14:59 56.58969 21.25750 35754 ft 433 kts 257°
2026-05-07 14:59 56.58359 21.20370 36015 ft 434 kts 257°
2026-05-07 14:59 56.57748 21.15004 36275 ft 435 kts 257°
2026-05-07 14:59 56.57133 21.09636 36528 ft 435 kts 257°
2026-05-07 15:00 56.56518 21.04276 36882 ft 433 kts 257°
2026-05-07 15:00 56.55900 20.98927 37101 ft 434 kts 257°
2026-05-07 15:00 56.55489 20.95376 37226 ft 435 kts 257°
2026-05-07 15:00 56.54866 20.90009 37457 ft 436 kts 257°
2026-05-07 15:01 56.54033 20.82873 37752 ft 437 kts 257°
2026-05-07 15:01 56.53606 20.79230 37904 ft 437 kts 257°
2026-05-07 15:01 56.52987 20.73966 38022 ft 439 kts 257°
2026-05-07 15:01 56.52347 20.68548 38024 ft 440 kts 257°
2026-05-07 15:02 56.51062 20.57723 38026 ft 439 kts 256°
2026-05-07 15:02 56.49769 20.46925 38026 ft 439 kts 256°
2026-05-07 15:03 56.48468 20.36136 38026 ft 439 kts 256°
2026-05-07 15:03 56.47161 20.25388 38027 ft 436 kts 256°
2026-05-07 15:04 56.45847 20.14668 38027 ft 437 kts 256°
2026-05-07 15:04 56.44522 20.03940 38028 ft 437 kts 256°
2026-05-07 15:05 56.43188 19.93219 38027 ft 437 kts 256°
2026-05-07 15:05 56.41843 19.82493 38028 ft 438 kts 256°
2026-05-07 15:06 56.40489 19.71771 38027 ft 438 kts 256°
2026-05-07 15:06 56.39131 19.61105 38034 ft 440 kts 256°
2026-05-07 15:07 56.37759 19.50399 38033 ft 436 kts 256°
2026-05-07 15:07 56.36435 19.39713 38038 ft 437 kts 256°
2026-05-07 15:08 56.35056 19.29023 38039 ft 438 kts 255°
2026-05-07 15:08 56.33637 19.18349 38040 ft 438 kts 255°
2026-05-07 15:09 56.32199 19.07636 38045 ft 440 kts 255°
2026-05-07 15:09 56.30761 18.96948 38045 ft 438 kts 255°
2026-05-07 15:10 56.29351 18.86283 38053 ft 438 kts 257°
2026-05-07 15:10 56.28252 18.75507 38052 ft 437 kts 258°
2026-05-07 15:11 56.27071 18.64762 38068 ft 438 kts 257°
2026-05-07 15:11 56.25843 18.54038 38061 ft 438 kts 257°
2026-05-07 15:12 56.24610 18.43374 38061 ft 439 kts 257°
2026-05-07 15:12 56.23366 18.32623 38039 ft 440 kts 257°
2026-05-07 15:13 56.21997 18.21901 38036 ft 440 kts 253°
2026-05-07 15:13 56.20363 18.11309 38032 ft 440 kts 253°
2026-05-07 15:14 56.18568 18.00848 38028 ft 438 kts 246°
2026-05-07 15:14 56.15600 17.91327 38033 ft 438 kts 236°
2026-05-07 15:15 56.12002 17.82504 38024 ft 438 kts 233°
2026-05-07 15:15 56.08329 17.73795 38031 ft 438 kts 233°
2026-05-07 15:16 56.04647 17.65091 38025 ft 439 kts 233°
2026-05-07 15:16 56.00982 17.56456 38023 ft 438 kts 233°
2026-05-07 15:17 55.97267 17.47719 38036 ft 437 kts 233°
2026-05-07 15:17 55.93659 17.39002 38054 ft 437 kts 233°
2026-05-07 15:18 55.90012 17.30323 38061 ft 437 kts 233°
2026-05-07 15:18 55.86344 17.21681 38063 ft 437 kts 233°
2026-05-07 15:19 55.82663 17.13063 38064 ft 438 kts 233°
2026-05-07 15:19 55.78997 17.04516 38064 ft 438 kts 232°
2026-05-07 15:20 55.75295 16.95924 38064 ft 438 kts 232°
2026-05-07 15:20 55.71592 16.87357 38066 ft 436 kts 232°
2026-05-07 15:21 55.67899 16.78846 38066 ft 436 kts 232°
2026-05-07 15:21 55.64192 16.70333 38067 ft 437 kts 232°
2026-05-07 15:22 55.60478 16.61834 38066 ft 437 kts 232°
2026-05-07 15:22 55.56756 16.53344 38066 ft 437 kts 232°
2026-05-07 15:23 55.53021 16.44856 38069 ft 438 kts 232°
2026-05-07 15:23 55.49278 16.36378 38068 ft 438 kts 232°
2026-05-07 15:24 55.45537 16.27934 38079 ft 435 kts 232°
2026-05-07 15:24 55.41816 16.19565 38090 ft 434 kts 232°
2026-05-07 15:25 55.38083 16.11197 38094 ft 435 kts 231°
2026-05-07 15:25 55.34437 16.03052 38096 ft 435 kts 231°
2026-05-07 15:26 55.30688 15.94703 38096 ft 436 kts 231°
2026-05-07 15:26 55.26952 15.86412 38096 ft 436 kts 231°
2026-05-07 15:27 55.23164 15.78035 38097 ft 435 kts 231°
2026-05-07 15:27 55.19423 15.69790 38097 ft 435 kts 231°
2026-05-07 15:28 55.15651 15.61503 38098 ft 435 kts 231°
2026-05-07 15:28 55.11867 15.53219 38099 ft 436 kts 231°
2026-05-07 15:29 55.08081 15.44959 38098 ft 435 kts 231°
2026-05-07 15:29 55.04291 15.36717 38098 ft 436 kts 231°
2026-05-07 15:30 55.00498 15.28472 38100 ft 437 kts 231°
2026-05-07 15:30 54.96714 15.20176 38099 ft 437 kts 231°
2026-05-07 15:31 54.92901 15.11989 38083 ft 435 kts 230°
2026-05-07 15:31 54.89087 15.03850 38086 ft 434 kts 230°
2026-05-07 15:32 54.85271 14.95729 38098 ft 433 kts 230°
2026-05-07 15:32 54.81467 14.87651 38102 ft 433 kts 230°
2026-05-07 15:33 54.77292 14.80114 38102 ft 434 kts 223°
2026-05-07 15:33 54.72863 14.73025 38108 ft 432 kts 223°
2026-05-07 15:34 54.68497 14.65908 38112 ft 432 kts 224°
2026-05-07 15:34 54.64154 14.58723 38108 ft 432 kts 223°
2026-05-07 15:35 54.59777 14.51606 38108 ft 433 kts 223°
2026-05-07 15:35 54.55388 14.44510 38109 ft 432 kts 223°
2026-05-07 15:36 54.51014 14.37456 38109 ft 433 kts 223°
2026-05-07 15:36 54.46643 14.30189 38106 ft 436 kts 228°
2026-05-07 15:37 54.42897 14.22007 38108 ft 435 kts 233°
2026-05-07 15:37 54.39304 14.13646 38108 ft 435 kts 233°
2026-05-07 15:38 54.35707 14.05321 38109 ft 433 kts 233°
2026-05-07 15:38 54.32105 13.97018 38113 ft 435 kts 232°
2026-05-07 15:39 54.28485 13.88708 38109 ft 435 kts 232°
2026-05-07 15:39 54.24871 13.80385 38110 ft 436 kts 233°
2026-05-07 15:40 54.21331 13.72064 38112 ft 436 kts 233°
2026-05-07 15:40 54.17725 13.63716 38111 ft 437 kts 232°
2026-05-07 15:41 54.14097 13.55389 38114 ft 437 kts 232°
2026-05-07 15:41 54.10471 13.47114 38111 ft 435 kts 232°
2026-05-07 15:42 54.06842 13.38868 38112 ft 436 kts 232°
2026-05-07 15:42 54.03197 13.30614 38112 ft 437 kts 232°
2026-05-07 15:43 53.99537 13.22355 38112 ft 437 kts 232°
2026-05-07 15:43 53.95878 13.14126 38112 ft 437 kts 232°
2026-05-07 15:44 53.92197 13.05876 38111 ft 439 kts 232°
2026-05-07 15:44 53.88511 12.97643 38110 ft 438 kts 232°
2026-05-07 15:45 53.84841 12.89470 38100 ft 435 kts 232°
2026-05-07 15:45 53.81163 12.81307 38091 ft 436 kts 232°
2026-05-07 15:46 53.75833 12.69526 38097 ft 437 kts 232°
2026-05-07 15:47 53.72131 12.61373 38093 ft 437 kts 232°
2026-05-07 15:47 53.69026 12.54557 38088 ft 437 kts 231°
2026-05-07 15:48 53.65314 12.46434 38086 ft 438 kts 231°
2026-05-07 15:48 53.61594 12.38317 38083 ft 435 kts 231°
2026-05-07 15:49 53.57891 12.30265 38083 ft 436 kts 231°
2026-05-07 15:49 53.54194 12.22251 38082 ft 437 kts 231°
2026-05-07 15:50 53.50461 12.14185 38082 ft 438 kts 231°
2026-05-07 15:50 53.46683 12.06047 38083 ft 439 kts 231°
2026-05-07 15:51 53.42955 11.98044 38083 ft 438 kts 231°
2026-05-07 15:51 53.39201 11.90010 38082 ft 439 kts 231°
2026-05-07 15:52 53.35439 11.81984 38083 ft 436 kts 231°
2026-05-07 15:52 53.31689 11.74008 38083 ft 436 kts 231°
2026-05-07 15:53 53.27930 11.66041 38084 ft 437 kts 231°
2026-05-07 15:53 53.24198 11.58040 38084 ft 437 kts 231°
2026-05-07 15:54 53.20427 11.50084 38083 ft 437 kts 231°
2026-05-07 15:54 53.16636 11.42162 38087 ft 438 kts 231°
2026-05-07 15:55 53.12834 11.34244 38087 ft 438 kts 230°
2026-05-07 15:55 53.09034 11.26346 38086 ft 436 kts 230°
2026-05-07 15:56 53.05322 11.18392 38084 ft 437 kts 233°
2026-05-07 15:56 53.01874 11.10009 38083 ft 439 kts 235°
2026-05-07 15:57 52.98416 11.01633 38083 ft 439 kts 234°
2026-05-07 15:57 52.94948 10.93324 38083 ft 438 kts 234°
2026-05-07 15:58 52.91462 10.85026 38083 ft 439 kts 234°
2026-05-07 15:58 52.87965 10.76736 38084 ft 439 kts 234°
2026-05-07 15:59 52.84520 10.68412 38082 ft 437 kts 234°
2026-05-07 15:59 52.81075 10.60141 38082 ft 438 kts 234°
2026-05-07 16:00 52.77615 10.51922 38083 ft 438 kts 234°
2026-05-07 16:00 52.74097 10.43617 38083 ft 439 kts 234°
2026-05-07 16:01 52.70608 10.35417 38083 ft 440 kts 234°
2026-05-07 16:01 52.67089 10.27176 38082 ft 440 kts 234°
2026-05-07 16:02 52.63564 10.18947 38083 ft 439 kts 234°
2026-05-07 16:02 52.60039 10.10746 38084 ft 438 kts 234°
2026-05-07 16:03 52.56513 10.02567 38086 ft 439 kts 234°
2026-05-07 16:03 52.52978 9.94396 38090 ft 439 kts 234°
2026-05-07 16:04 52.49426 9.86209 38092 ft 439 kts 234°
2026-05-07 16:04 52.45874 9.78050 38099 ft 439 kts 233°
2026-05-07 16:05 52.42321 9.69908 38103 ft 440 kts 234°
2026-05-07 16:05 52.38982 9.62155 38100 ft 439 kts 233°
2026-05-07 16:06 52.35414 9.54042 38093 ft 439 kts 233°
2026-05-07 16:06 52.31827 9.45948 38093 ft 439 kts 233°
2026-05-07 16:07 52.28237 9.37870 38091 ft 439 kts 233°
2026-05-07 16:07 52.24644 9.29799 38085 ft 440 kts 233°
2026-05-07 16:08 52.21116 9.21645 38085 ft 440 kts 235°
2026-05-07 16:08 52.17688 9.13383 38087 ft 441 kts 235°
2026-05-07 16:09 52.14277 9.05084 38082 ft 440 kts 236°
2026-05-07 16:09 52.10868 8.96908 38083 ft 439 kts 235°
2026-05-07 16:10 52.07382 8.88665 38082 ft 440 kts 235°
2026-05-07 16:10 52.04033 8.80777 38083 ft 440 kts 235°
2026-05-07 16:11 52.00557 8.72531 38080 ft 440 kts 238°
2026-05-07 16:11 51.98094 8.63655 38080 ft 426 kts 252°
2026-05-07 16:11 51.97330 8.59093 38075 ft 411 kts 255°
2026-05-07 16:12 51.96704 8.54660 38012 ft 399 kts 257°
2026-05-07 16:12 51.96125 8.50270 37523 ft 398 kts 257°
2026-05-07 16:12 51.95550 8.45885 37002 ft 397 kts 257°
2026-05-07 16:12 51.94979 8.41522 36713 ft 391 kts 257°
2026-05-07 16:13 51.94416 8.37222 36184 ft 391 kts 257°
2026-05-07 16:13 51.93848 8.32888 35585 ft 394 kts 257°
2026-05-07 16:13 51.93277 8.28540 34985 ft 395 kts 257°
2026-05-07 16:13 51.92703 8.24175 34385 ft 397 kts 257°
2026-05-07 16:14 51.92155 8.19788 33904 ft 395 kts 258°
2026-05-07 16:14 51.91656 8.15500 33847 ft 382 kts 258°
2026-05-07 16:14 51.91137 8.11342 33787 ft 370 kts 257°
2026-05-07 16:14 51.90618 8.07335 33731 ft 358 kts 257°
2026-05-07 16:15 51.90104 8.03445 33677 ft 348 kts 257°
2026-05-07 16:15 51.89602 7.99678 33624 ft 337 kts 256°
2026-05-07 16:15 51.89110 7.96020 33312 ft 336 kts 256°
2026-05-07 16:15 51.88605 7.92268 32757 ft 342 kts 256°
2026-05-07 16:16 51.88093 7.88482 32210 ft 347 kts 256°
2026-05-07 16:16 51.87574 7.84645 31662 ft 351 kts 256°
2026-05-07 16:16 51.87048 7.80759 31113 ft 355 kts 256°
2026-05-07 16:16 51.86517 7.76840 30564 ft 359 kts 256°
2026-05-07 16:17 51.85934 7.72902 30013 ft 361 kts 252°
2026-05-07 16:17 51.85083 7.69179 29477 ft 362 kts 246°
2026-05-07 16:17 51.84136 7.65645 28957 ft 363 kts 246°
2026-05-07 16:17 51.83090 7.61911 28405 ft 363 kts 245°
2026-05-07 16:18 51.82013 7.58210 27785 ft 365 kts 244°
2026-05-07 16:18 51.80913 7.54491 27159 ft 367 kts 244°
2026-05-07 16:18 51.79804 7.50774 26535 ft 369 kts 244°
2026-05-07 16:18 51.78684 7.47036 25909 ft 370 kts 244°
2026-05-07 16:19 51.77558 7.43293 25283 ft 370 kts 244°
2026-05-07 16:19 51.76430 7.39548 24707 ft 369 kts 244°
2026-05-07 16:19 51.75314 7.35849 24205 ft 365 kts 244°
2026-05-07 16:19 51.74221 7.32229 23710 ft 362 kts 244°
2026-05-07 16:20 51.73112 7.28558 23205 ft 359 kts 244°
2026-05-07 16:20 51.72047 7.25032 22715 ft 357 kts 244°
2026-05-07 16:20 51.70794 7.21564 22203 ft 355 kts 231°
2026-05-07 16:20 51.68931 7.18991 21705 ft 354 kts 212°
2026-05-07 16:21 51.66642 7.17400 21202 ft 354 kts 200°
2026-05-07 16:21 51.64344 7.16158 20708 ft 351 kts 201°
2026-05-07 16:21 51.62064 7.14843 20210 ft 349 kts 201°
2026-05-07 16:21 51.59779 7.13476 19706 ft 347 kts 202°
2026-05-07 16:22 51.57527 7.12120 19206 ft 345 kts 202°
2026-05-07 16:22 51.55355 7.10525 18698 ft 341 kts 215°
2026-05-07 16:22 51.53637 7.07978 18203 ft 336 kts 231°
2026-05-07 16:22 51.52222 7.05002 17703 ft 334 kts 234°
2026-05-07 16:23 51.50881 7.01978 17203 ft 332 kts 235°
2026-05-07 16:23 51.49994 6.99998 16873 ft 331 kts 234°
2026-05-07 16:23 51.48898 6.97590 16467 ft 329 kts 234°
2026-05-07 16:24 51.47654 6.94894 16009 ft 327 kts 234°
2026-05-07 16:24 51.46400 6.92208 15546 ft 325 kts 233°
2026-05-07 16:24 51.45050 6.89315 15046 ft 323 kts 234°
2026-05-07 16:24 51.43727 6.86409 14544 ft 321 kts 234°
2026-05-07 16:25 51.42400 6.83544 14044 ft 319 kts 234°
2026-05-07 16:25 51.41068 6.80705 13543 ft 317 kts 233°
2026-05-07 16:25 51.39739 6.77898 13043 ft 315 kts 233°
2026-05-07 16:25 51.38412 6.75110 12540 ft 313 kts 233°
2026-05-07 16:26 51.37097 6.72353 12043 ft 311 kts 233°
2026-05-07 16:26 51.35780 6.69603 11539 ft 309 kts 233°
2026-05-07 16:26 51.34479 6.66885 11039 ft 307 kts 233°
2026-05-07 16:26 51.33625 6.65105 10710 ft 306 kts 233°
2026-05-07 16:27 51.31894 6.61494 10104 ft 301 kts 233°
2026-05-07 16:27 51.30657 6.58917 9853 ft 291 kts 233°
2026-05-07 16:27 51.29440 6.56384 9539 ft 284 kts 233°
2026-05-07 16:27 51.28244 6.53894 9090 ft 282 kts 233°
2026-05-07 16:28 51.27052 6.51415 8640 ft 281 kts 233°
2026-05-07 16:28 51.25871 6.48955 8191 ft 279 kts 233°
2026-05-07 16:28 51.24684 6.46536 7719 ft 273 kts 229°
2026-05-07 16:28 51.23148 6.44870 7151 ft 267 kts 199°
2026-05-07 16:29 51.21336 6.44812 6591 ft 263 kts 166°
2026-05-07 16:29 51.19803 6.46266 6068 ft 252 kts 139°
2026-05-07 16:29 51.18740 6.48400 5560 ft 242 kts 124°
2026-05-07 16:29 51.18008 6.50762 5050 ft 234 kts 109°
2026-05-07 16:30 51.17873 6.53289 4533 ft 227 kts 83°
2026-05-07 16:30 51.18101 6.54815 4175 ft 229 kts 71°
2026-05-07 16:30 51.18620 6.56548 3714 ft 228 kts 57°
2026-05-07 16:30 51.19721 6.58308 3159 ft 222 kts 38°
2026-05-07 16:31 51.20471 6.59393 2787 ft 217 kts 45°
2026-05-07 16:31 51.21400 6.61240 2298 ft 207 kts 53°
2026-05-07 16:31 51.22430 6.63572 1970 ft 184 kts 52°
2026-05-07 16:31 51.22931 6.64646 1810 ft 171 kts 52°
2026-05-07 16:32 51.23621 6.66102 1578 ft 156 kts 52°
2026-05-07 16:32 51.24244 6.67410 1398 ft 140 kts 52°
2026-05-07 16:32 51.24815 6.68607 1212 ft 130 kts 53°
2026-05-07 16:32 51.25342 6.69712 1032 ft 124 kts 53°
2026-05-07 16:33 51.25859 6.70796 883 ft 122 kts 52°
2026-05-07 16:33 51.26372 6.71868 723 ft 122 kts 53°
2026-05-07 16:33 51.26890 6.72954 572 ft 125 kts 54°
2026-05-07 16:33 51.27422 6.74087 437 ft 130 kts 52°
2026-05-07 16:34 51.27984 6.75245 263 ft 133 kts 53°
2026-05-07 16:34 51.28533 6.76401 156 ft 121 kts 51°
2026-05-07 16:34 51.28967 6.77305 156 ft 81 kts 54°
2026-05-07 16:34 51.29239 6.77881 155 ft 35 kts 56°
2026-05-07 16:35 51.29298 6.78066 155 ft 18 kts 98°
2026-05-07 16:35 51.29262 6.78187 155 ft 17 kts 145°
2026-05-07 16:35 51.29161 6.78183 155 ft 14 kts 230°
2026-05-07 16:35 51.29109 6.78074 155 ft 11 kts 232°
2026-05-07 16:36 51.29064 6.77986 155 ft 15 kts 232°
2026-05-07 16:36 51.28984 6.77817 155 ft 20 kts 231°
2026-05-07 16:36 51.28900 6.77635 155 ft 24 kts 234°
2026-05-07 16:36 51.28788 6.77402 155 ft 26 kts 235°
2026-05-07 16:37 51.28683 6.77183 155 ft 23 kts 233°
2026-05-07 16:37 51.28581 6.76988 155 ft 21 kts 236°
2026-05-07 16:37 51.28505 6.76805 155 ft 18 kts 232°
2026-05-07 16:37 51.28431 6.76650 155 ft 17 kts 231°
2026-05-07 16:38 51.28354 6.76490 155 ft 21 kts 233°
2026-05-07 16:38 51.28265 6.76304 155 ft 21 kts 230°
2026-05-07 16:38 51.28181 6.76125 155 ft 20 kts 233°
2026-05-07 16:38 51.28098 6.75952 155 ft 20 kts 230°
2026-05-07 16:39 51.28007 6.75824 155 ft 17 kts 185°
2026-05-07 16:39 51.27913 6.75821 155 ft 13 kts 182°
2026-05-07 16:39 51.27859 6.75821 155 ft 0 kts 180°
2026-05-07 16:39 51.27850 6.75821 155 ft 5 kts 179°
2026-05-07 16:40 51.27805 6.75837 155 ft 5 kts 122°
2026-05-07 16:40 51.27801 6.75868 155 ft 1 kts 95°
2026-05-07 16:40 51.27799 6.75926 155 ft 8 kts 91°
2026-05-07 16:40 51.27799 6.75936 155 ft 0 kts 90°